Location: Vinland
(47.7731°N, 122.6974°W)
Time: 02:25:41
(UTC+00:00)

S-56A Canister/Altair - Pass Details

Date: 29 March 2023
Orbit: 639 x 2492 km, 38.9° (Epoch: 31 May)

Event Time Altitude Azimuth Distance (km) Brightness Sun altitude
Rises 04:12:30 0° 256° (WSW) 5,061 12.6 -16.6°
Reaches altitude 10° 04:15:32 10° 252° (WSW) 4,285 12.0 -17.0°
Maximum altitude 04:27:29 59° 178° (S) 2,596 9.9 -18.8°
Enters shadow 04:37:02 26° 111° (ESE) 3,986 10.5 -20.2°
